Location: Bottenau
(48.5138°N, 8.0462°E)
Time: 05:16:44
(UTC+00:00)

SeaSat 1 - Pass Details

Date: 18 April 2021
Orbit: 744 x 747 km, 108.0° (Epoch: 09 May)

Event Time Altitude Azimuth Distance (km) Brightness Sun altitude
Rises 21:19:42 0° 36° (NE) 3,203 6.0 -24.0°
Reaches altitude 10° 21:22:11 10° 46° (NE) 2,274 5.0 -24.3°
Enters shadow 21:24:37 24° 68° (ENE) 1,516 3.9 -24.5°
